{"data":{"norad_id":68467,"intl_designator":"2026-067BD","name":"TRANSPORTER-16 OBJECT BD","alt_names":[],"object_type":"PAYLOAD","status":"ACTIVE","operator":null,"country":"TBD","launch_date":"2026-03-30","launch_site_code":"AFWTR","launch_vehicle":null,"mission":null,"orbit_class":"UNKNOWN","rcs_meters":null,"size_class":null,"mass_kg":null,"dimensions":null,"purposes":[],"wikipedia_slug":null,"has_3d_model":false,"image_url":null,"decayed_at":null,"tle_current":{"epoch":"2026-05-25T03:46:25.582656Z","epoch_age_seconds":61565,"freshness":"FRESH","line1":"1 68467U 26067BD  26145.15724054  .00015607  00000+0  76517-3 0  9995","line2":"2 68467  97.4397 103.8251 0007898 139.1825 221.0002 15.18187626  8441","mean_motion":15.18187626,"eccentricity":0.0007898,"inclination_deg":97.4397,"raan_deg":103.8251,"arg_perigee_deg":139.1825,"mean_anomaly_deg":221.0002,"bstar":0.00076517,"rev_number":844,"period_min":94.849936551913,"perigee_km":505.87684488925,"apogee_km":516.75942822295,"semimajor_km":6889.4551365561,"source":"CELESTRAK","updated_at":"2026-05-25T13:38:07.847778Z"}}}